NORTHRYDE Weather Reports


time (UTC)temp
C
wind
direction
speed
KPH
gust
KPH
rain 1hr
cm
rain 24hr
cm
rain mn
cm
humidity
%
barometer
mb
20260503214812 17 140 0.0 3.2 0.00 0.00 0.00 93 1017.8
20260503214710 17 148 0.0 3.2 0.00 0.00 0.00 93 1017.9
20260503214511 17 148 0.0 3.2 0.00 0.00 0.00 93 1017.9
20260503214442 17 148 0.0 3.2 0.00 0.00 0.00 93 1017.9
20260503214414 17 148 0.0 3.2 0.00 0.00 0.00 93 1018.0
20260503214355 17 242 0.0 4.8 0.00 0.00 0.00 93 1017.9
20260503214329 17 242 0.0 6.4 0.00 0.00 0.00 93 1017.9
20260503214012 17 268 0.0 6.4 0.00 0.00 0.00 93 1018.0
20260503213934 16 268 0.0 6.4 0.00 0.00 0.00 93 1017.9
20260503213914 16 268 0.0 6.4 0.00 0.00 0.00 93 1017.8
20260503213848 16 268 0.0 6.4 0.00 0.00 0.00 93 1017.9
20260503213823 16 268 0.0 6.4 0.00 0.00 0.00 93 1018.0
20260503213509 16 268 1.6 6.4 0.00 0.00 0.00 93 1018.0
20260503213413 16 268 3.2 6.4 0.00 0.00 0.00 93 1018.1
20260503213318 16 268 3.2 6.4 0.00 0.00 0.00 93 1018.1
20260503213212 16 285 3.2 6.4 0.00 0.00 0.00 93 1018.2
20260503213012 16 277 1.6 3.2 0.00 0.00 0.00 93 1018.0
20260503212910 16 278 0.0 3.2 0.00 0.00 0.00 93 1018.0
20260503212822 16 230 0.0 1.6 0.00 0.00 0.00 93 1017.9
20260503212702 16 230 0.0 1.6 0.00 0.00 0.00 93 1017.8
20260503212602 16 230 0.0 1.6 0.00 0.00 0.00 93 1017.8
20260503212456 16 230 0.0 1.6 0.00 0.00 0.00 93 1017.8
20260503212432 16 230 0.0 1.6 0.00 0.00 0.00 93 1017.8
20260503212405 16 230 0.0 1.6 0.00 0.00 0.00 93 1017.8
20260503212342 16 230 0.0 1.6 0.00 0.00 0.00 93 1017.7
20260503212046 16 230 0.0 1.6 0.00 0.00 0.00 93 1017.8
20260503211939 16 230 0.0 1.6 0.00 0.00 0.00 93 1017.7
20260503211837 16 230 0.0 1.6 0.00 0.00 0.00 93 1017.8
20260503211742 16 230 0.0 1.6 0.00 0.00 0.00 93 1017.7
20260503211639 16 230 0.0 0.0 0.00 0.00 0.00 93 1017.8
20260503211539 16 230 0.0 0.0 0.00 0.00 0.00 93 1017.8
20260503211440 16 230 0.0 0.0 0.00 0.00 0.00 93 1017.8
20260503211338 16 230 0.0 0.0 0.00 0.00 0.00 93 1017.8
20260503211238 16 230 0.0 0.0 0.00 0.00 0.00 92 1017.8
20260503211138 16 230 0.0 1.6 0.00 0.00 0.00 93 1017.8
20260503211038 16 230 0.0 1.6 0.00 0.00 0.00 92 1017.7
20260503210938 16 230 0.0 1.6 0.00 0.00 0.00 92 1017.7
20260503210837 16 230 0.0 1.6 0.00 0.00 0.00 92 1017.7
20260503210736 16 230 0.0 1.6 0.00 0.00 0.00 92 1017.7
20260503210638 16 230 0.0 1.6 0.00 0.00 0.00 92 1017.7
20260503210538 16 230 0.0 1.6 0.00 0.00 0.00 92 1017.5
20260503210437 16 230 0.0 1.6 0.00 0.00 0.00 92 1017.6
20260503210338 16 230 0.0 1.6 0.00 0.00 0.00 92 1017.5
20260503210236 16 230 0.0 1.6 0.00 0.00 0.00 92 1017.6
20260503210136 16 230 0.0 1.6 0.00 0.00 0.00 92 1017.5
20260503210036 16 230 0.0 1.6 0.00 0.00 0.00 92 1017.6
20260503205936 16 230 0.0 1.6 0.00 0.00 0.00 92 1017.6
20260503205836 16 230 0.0 0.0 0.00 0.00 0.00 92 1017.5
20260503205801 16 230 0.0 0.0 0.00 0.00 0.00 92 1017.6
20260503205635 16 230 0.0 0.0 0.00 0.00 0.00 92 1017.5
20260503205527 16 230 0.0 0.0 0.00 0.00 0.00 92 1017.4
20260503205420 16 230 0.0 0.0 0.00 0.00 0.00 92 1017.5
20260503205323 16 230 0.0 1.6 0.00 0.00 0.00 92 1017.5
20260503205221 16 230 0.0 1.6 0.00 0.00 0.00 92 1017.5
20260503205013 16 230 0.0 3.2 0.00 0.00 0.00 92 1017.6
20260503204911 16 230 0.0 4.8 0.00 0.00 0.00 92 1017.5
20260503204813 16 230 0.0 4.8 0.00 0.00 0.00 92 1017.6
20260503204712 16 230 0.0 4.8 0.00 0.00 0.00 92 1017.5
20260503204510 16 230 0.0 4.8 0.00 0.00 0.00 92 1017.6
20260503204410 16 230 0.0 4.8 0.00 0.00 0.00 92 1017.6
20260503204310 16 230 1.6 4.8 0.00 0.00 0.00 92 1017.7
20260503204209 16 230 1.6 4.8 0.00 0.00 0.00 92 1017.6
20260503204011 16 213 0.0 4.8 0.00 0.00 0.00 92 1017.6
20260503203910 16 275 0.0 1.6 0.00 0.00 0.00 92 1017.6
20260503203811 16 275 1.6 1.6 0.00 0.00 0.00 92 1017.7
20260503203709 16 275 0.0 1.6 0.00 0.00 0.00 92 1017.7
20260503203509 16 311 0.0 3.2 0.00 0.00 0.00 92 1017.7
20260503203440 16 311 0.0 3.2 0.00 0.00 0.00 92 1017.6
20260503203418 16 311 0.0 3.2 0.00 0.00 0.00 92 1017.6
20260503203352 16 311 0.0 3.2 0.00 0.00 0.00 92 1017.5
20260503203326 16 311 0.0 3.2 0.00 0.00 0.00 92 1017.5
20260503203011 16 311 0.0 3.2 0.00 0.00 0.00 92 1017.5
20260503202907 16 311 0.0 3.2 0.00 0.00 0.00 92 1017.4
20260503202807 16 311 0.0 3.2 0.00 0.00 0.00 92 1017.5
20260503202732 16 311 0.0 3.2 0.00 0.00 0.00 92 1017.6
20260503202608 16 311 0.0 3.2 0.00 0.00 0.00 92 1017.4
20260503202502 16 349 0.0 1.6 0.00 0.00 0.00 92 1017.4
20260503202402 16 349 0.0 1.6 0.00 0.00 0.00 92 1017.3
20260503202304 16 349 0.0 0.0 0.00 0.00 0.00 92 1017.4
20260503202154 16 349 0.0 0.0 0.00 0.00 0.00 92 1017.3
20260503202044 16 349 0.0 0.0 0.00 0.00 0.00 92 1017.2
20260503201937 16 349 0.0 0.0 0.00 0.00 0.00 92 1017.2
20260503201836 16 349 0.0 0.0 0.00 0.00 0.00 92 1017.2
20260503201738 16 349 0.0 0.0 0.00 0.00 0.00 92 1017.2
20260503201638 16 349 0.0 0.0 0.00 0.00 0.00 92 1017.2
20260503201539 16 349 0.0 0.0 0.00 0.00 0.00 92 1017.2
20260503201437 16 349 0.0 0.0 0.00 0.00 0.00 92 1017.2
20260503201337 16 349 0.0 0.0 0.00 0.00 0.00 92 1017.2
20260503201237 16 349 0.0 0.0 0.00 0.00 0.00 92 1017.2
20260503201136 16 349 0.0 0.0 0.00 0.00 0.00 92 1017.2
20260503201040 16 349 0.0 0.0 0.00 0.00 0.00 92 1017.2
20260503200938 16 349 0.0 0.0 0.00 0.00 0.00 92 1017.2
20260503200839 16 349 0.0 0.0 0.00 0.00 0.00 92 1017.2
20260503200740 16 349 0.0 0.0 0.00 0.00 0.00 92 1017.1
20260503200638 16 349 0.0 0.0 0.00 0.00 0.00 92 1017.1
20260503200541 16 349 0.0 0.0 0.00 0.00 0.00 92 1017.1
20260503200438 16 349 0.0 0.0 0.00 0.00 0.00 92 1017.0
20260503200337 16 349 0.0 0.0 0.00 0.00 0.00 92 1017.0
20260503200245 16 349 0.0 0.0 0.00 0.00 0.00 92 1017.0
20260503200138 16 349 0.0 0.0 0.00 0.00 0.00 92 1017.0
20260503200037 16 349 0.0 0.0 0.00 0.00 0.00 92 1016.9
20260503195940 16 349 0.0 1.6 0.00 0.00 0.00 92 1016.9
20260503195838 16 349 0.0 1.6 0.00 0.00 0.00 92 1017.0
20260503195741 16 349 0.0 1.6 0.00 0.00 0.00 92 1016.9
20260503195637 16 349 0.0 1.6 0.00 0.00 0.00 92 1017.0
20260503195535 16 349 0.0 1.6 0.00 0.00 0.00 92 1016.9
20260503195423 16 349 0.0 1.6 0.00 0.00 0.00 92 1016.9
20260503195321 16 349 0.0 1.6 0.00 0.00 0.00 92 1017.0
20260503195215 16 349 0.0 1.6 0.00 0.00 0.00 92 1017.0
20260503195014 16 349 0.0 1.6 0.00 0.00 0.00 92 1016.8
20260503194910 16 349 0.0 1.6 0.00 0.00 0.00 92 1016.8
20260503194810 16 349 0.0 1.6 0.00 0.00 0.00 92 1016.9
20260503194710 16 349 0.0 1.6 0.00 0.00 0.00 92 1016.8
20260503194511 16 349 0.0 0.0 0.00 0.00 0.00 92 1016.9
20260503194413 16 349 0.0 0.0 0.00 0.00 0.00 92 1016.9
20260503194310 16 349 0.0 0.0 0.00 0.00 0.00 92 1016.8
20260503194233 16 349 0.0 0.0 0.00 0.00 0.00 92 1016.8
20260503194133 16 349 0.0 0.0 0.00 0.00 0.00 92 1016.9
20260503194112 16 349 0.0 0.0 0.00 0.00 0.00 92 1016.9
20260503193834 16 349 0.0 0.0 0.00 0.00 0.00 92 1016.8
20260503193810 16 349 0.0 0.0 0.00 0.00 0.00 92 1016.9
20260503193714 16 349 0.0 0.0 0.00 0.00 0.00 92 1016.8
20260503193438 16 349 0.0 0.0 0.00 0.00 0.00 92 1016.9
20260503193419 16 349 0.0 0.0 0.00 0.00 0.00 92 1016.8
20260503193359 16 349 0.0 0.0 0.00 0.00 0.00 92 1016.8
20260503193326 16 349 0.0 0.0 0.00 0.00 0.00 92 1016.9
20260503193011 16 349 0.0 0.0 0.00 0.00 0.00 91 1016.8
20260503192908 16 349 0.0 0.0 0.00 0.00 0.00 92 1016.7
20260503192813 16 349 0.0 0.0 0.00 0.00 0.00 92 1016.8
20260503192718 16 349 0.0 1.6 0.00 0.00 0.00 92 1016.8
20260503192510 16 349 0.0 1.6 0.00 0.00 0.00 91 1016.7
20260503192411 16 349 0.0 1.6 0.00 0.00 0.00 91 1016.8
20260503192309 16 349 0.0 1.6 0.00 0.00 0.00 91 1016.8
20260503192210 16 349 0.0 1.6 0.00 0.00 0.00 91 1016.8
20260503192009 16 349 0.0 1.6 0.00 0.00 0.00 91 1016.8
20260503191908 16 349 0.0 1.6 0.00 0.00 0.00 91 1016.8
20260503191809 16 349 0.0 1.6 0.00 0.00 0.00 91 1016.8
20260503191711 16 349 0.0 1.6 0.00 0.00 0.00 91 1016.9
20260503191510 16 349 0.0 1.6 0.00 0.00 0.00 91 1016.9
20260503191411 16 349 0.0 1.6 0.00 0.00 0.00 91 1016.8
20260503191308 16 349 0.0 0.0 0.00 0.00 0.00 91 1016.8
20260503191211 16 349 0.0 0.0 0.00 0.00 0.00 91 1016.8
20260503191010 16 349 0.0 0.0 0.00 0.00 0.00 91 1016.9
20260503190913 16 349 0.0 0.0 0.00 0.00 0.00 91 1016.9
20260503190812 16 349 0.0 0.0 0.00 0.00 0.00 91 1016.8
20260503190713 16 349 0.0 0.0 0.00 0.00 0.00 91 1016.8
20260503190509 16 349 0.0 0.0 0.00 0.00 0.00 91 1016.9
20260503190417 16 349 0.0 0.0 0.00 0.00 0.00 91 1016.8
20260503190309 16 349 0.0 0.0 0.00 0.00 0.00 91 1016.8
20260503190212 16 349 0.0 0.0 0.00 0.00 0.00 91 1016.8
20260503190012 16 349 0.0 0.0 0.00 0.00 0.00 91 1016.9
20260503185909 16 349 0.0 0.0 0.00 0.00 0.00 91 1016.9
20260503185809 16 349 0.0 0.0 0.00 0.00 0.00 91 1016.9
20260503185710 16 349 0.0 0.0 0.00 0.00 0.00 91 1016.8
20260503185512 16 349 0.0 0.0 0.00 0.00 0.00 91 1016.9
20260503185411 16 349 0.0 0.0 0.00 0.00 0.00 91 1016.8
20260503185309 16 349 0.0 0.0 0.00 0.00 0.00 91 1016.9
20260503185210 16 349 0.0 0.0 0.00 0.00 0.00 91 1016.9
20260503185010 16 349 0.0 0.0 0.00 0.00 0.00 91 1016.9
20260503184910 16 349 0.0 0.0 0.00 0.00 0.00 91 1016.9
20260503184810 16 349 0.0 1.6 0.00 0.00 0.00 91 1016.9
20260503184709 16 349 0.0 1.6 0.00 0.00 0.00 91 1017.0
20260503184510 16 349 0.0 1.6 0.00 0.00 0.00 91 1016.9
20260503184409 16 349 0.0 1.6 0.00 0.00 0.00 91 1016.9
20260503184309 16 349 0.0 1.6 0.00 0.00 0.00 91 1016.9
20260503184209 16 349 0.0 1.6 0.00 0.00 0.00 91 1017.0
20260503184010 16 349 0.0 1.6 0.00 0.00 0.00 91 1016.9
20260503183911 16 349 0.0 1.6 0.00 0.00 0.00 91 1016.8
20260503183809 16 349 0.0 1.6 0.00 0.00 0.00 91 1016.8
20260503183711 16 349 0.0 1.6 0.00 0.00 0.00 91 1016.9
20260503183511 16 349 0.0 1.6 0.00 0.00 0.00 91 1016.9
20260503183411 16 349 0.0 1.6 0.00 0.00 0.00 91 1016.8
20260503183309 16 349 0.0 1.6 0.00 0.00 0.00 91 1016.9
20260503183208 16 349 0.0 1.6 0.00 0.00 0.00 90 1016.9
20260503183008 16 349 0.0 1.6 0.00 0.00 0.00 90 1016.9
20260503182910 16 349 0.0 1.6 0.00 0.00 0.00 90 1016.9
20260503182812 16 349 0.0 1.6 0.00 0.00 0.00 90 1016.9
20260503182712 16 349 0.0 1.6 0.00 0.00 0.00 90 1016.9
20260503182509 16 349 0.0 1.6 0.00 0.00 0.00 90 1016.9
20260503182408 16 349 0.0 1.6 0.00 0.00 0.00 90 1017.0
20260503182308 16 302 0.0 0.0 0.00 0.00 0.00 90 1016.9
20260503182209 16 302 0.0 0.0 0.00 0.00 0.00 90 1016.8
20260503182014 16 302 0.0 0.0 0.00 0.00 0.00 90 1016.9
20260503181908 16 302 0.0 0.0 0.00 0.00 0.00 90 1016.7
20260503181810 16 302 0.0 0.0 0.00 0.00 0.00 90 1016.7
20260503181709 16 302 0.0 0.0 0.00 0.00 0.00 90 1016.7
20260503181508 16 302 0.0 0.0 0.00 0.00 0.00 90 1016.7
20260503181412 16 302 0.0 0.0 0.00 0.00 0.00 90 1016.8
20260503181311 16 302 0.0 0.0 0.00 0.00 0.00 90 1016.7
20260503181210 16 302 0.0 0.0 0.00 0.00 0.00 90 1016.7
20260503181009 16 302 0.0 0.0 0.00 0.00 0.00 90 1016.8
20260503180910 16 302 0.0 0.0 0.00 0.00 0.00 90 1016.8
20260503180810 16 302 0.0 0.0 0.00 0.00 0.00 90 1016.8
20260503180711 16 302 0.0 0.0 0.00 0.00 0.00 90 1016.8
20260503180510 16 302 0.0 0.0 0.00 0.00 0.00 90 1016.8
20260503180430 16 302 0.0 0.0 0.00 0.00 0.00 90 1016.8
20260503180411 16 302 0.0 0.0 0.00 0.00 0.00 90 1016.8
20260503180349 16 302 0.0 0.0 0.00 0.00 0.00 90 1016.8
20260503180100 16 302 0.0 0.0 0.00 0.00 0.00 90 1016.8
20260503175958 16 302 0.0 0.0 0.00 0.00 0.00 90 1016.8
20260503175852 16 302 0.0 0.0 0.00 0.00 0.00 90 1016.7
20260503175753 16 302 0.0 0.0 0.00 0.00 0.00 90 1016.8
20260503175647 16 302 0.0 0.0 0.00 0.00 0.00 90 1016.8
20260503175549 16 302 0.0 0.0 0.00 0.00 0.00 90 1016.9
20260503175444 16 302 0.0 0.0 0.00 0.00 0.00 90 1016.9
20260503175344 16 302 0.0 0.0 0.00 0.00 0.00 90 1016.8
20260503175245 16 302 0.0 0.0 0.00 0.00 0.00 90 1016.9
20260503175143 16 302 0.0 0.0 0.00 0.00 0.00 90 1016.9
20260503175044 16 302 0.0 0.0 0.00 0.00 0.00 90 1017.0
20260503174938 16 302 0.0 0.0 0.00 0.00 0.00 90 1017.0
20260503174838 16 302 0.0 0.0 0.00 0.00 0.00 90 1016.9
20260503174739 16 302 0.0 0.0 0.00 0.00 0.00 90 1016.9
20260503174637 16 302 0.0 0.0 0.00 0.00 0.00 90 1016.9
20260503174538 16 302 0.0 0.0 0.00 0.00 0.00 90 1016.9
20260503174437 16 302 0.0 0.0 0.00 0.00 0.00 90 1016.9
20260503174339 16 302 0.0 0.0 0.00 0.00 0.00 90 1017.0
20260503174236 16 302 0.0 0.0 0.00 0.00 0.00 90 1017.0
20260503174137 16 302 0.0 0.0 0.00 0.00 0.00 90 1017.0
20260503174037 16 302 0.0 0.0 0.00 0.00 0.00 90 1017.0
20260503173940 16 302 0.0 0.0 0.00 0.00 0.00 90 1017.0
20260503173837 16 302 0.0 0.0 0.00 0.00 0.00 90 1017.0
20260503173738 16 302 0.0 0.0 0.00 0.00 0.00 90 1017.0
20260503173637 16 302 0.0 0.0 0.00 0.00 0.00 90 1016.9
20260503173537 16 302 0.0 0.0 0.00 0.00 0.00 90 1017.0
20260503173439 16 302 0.0 0.0 0.00 0.00 0.00 90 1017.0
20260503173337 16 302 0.0 0.0 0.00 0.00 0.00 89 1017.0
20260503173236 16 302 0.0 0.0 0.00 0.00 0.00 90 1017.0
20260503173137 16 302 0.0 0.0 0.00 0.00 0.00 90 1017.0
20260503173040 16 302 0.0 0.0 0.00 0.00 0.00 89 1017.0
20260503172926 16 302 0.0 0.0 0.00 0.00 0.00 89 1017.1
20260503172825 16 302 0.0 0.0 0.00 0.00 0.00 89 1017.0
20260503172726 16 302 0.0 0.0 0.00 0.00 0.00 89 1017.0
20260503172523 16 302 0.0 0.0 0.00 0.00 0.00 89 1017.0
20260503172423 16 302 0.0 0.0 0.00 0.00 0.00 89 1017.1
20260503172319 16 302 0.0 0.0 0.00 0.00 0.00 89 1017.1
20260503172216 16 302 0.0 0.0 0.00 0.00 0.00 89 1017.2
20260503172124 16 302 0.0 0.0 0.00 0.00 0.00 89 1017.2
20260503172021 16 302 0.0 0.0 0.00 0.00 0.00 89 1017.2
20260503171910 16 302 0.0 0.0 0.00 0.00 0.00 89 1017.2
20260503171811 16 302 0.0 0.0 0.00 0.00 0.00 89 1017.1
20260503171713 16 302 0.0 0.0 0.00 0.00 0.00 89 1017.2
20260503171510 16 302 0.0 0.0 0.00 0.00 0.00 89 1017.2
20260503171410 16 302 0.0 0.0 0.00 0.00 0.00 89 1017.2
20260503171313 16 302 0.0 0.0 0.00 0.00 0.00 89 1017.2
20260503171211 16 302 0.0 0.0 0.00 0.00 0.00 89 1017.2
20260503171010 16 302 0.0 0.0 0.00 0.00 0.00 89 1017.2
20260503170910 16 302 0.0 0.0 0.00 0.00 0.00 89 1017.4
20260503170811 16 302 0.0 0.0 0.00 0.00 0.00 89 1017.2
20260503170711 16 302 0.0 0.0 0.00 0.00 0.00 89 1017.3
20260503170511 16 302 0.0 0.0 0.00 0.00 0.00 89 1017.2
20260503170409 16 302 0.0 0.0 0.00 0.00 0.00 89 1017.2
20260503170313 16 302 0.0 0.0 0.00 0.00 0.00 89 1017.4
20260503170211 16 302 0.0 0.0 0.00 0.00 0.00 89 1017.3
20260503160210 17 280 0.0 3.2 0.00 0.00 0.00 88 1018.0
20260503150937 17 53 0.0 0.0 0.00 0.00 0.00 86 1018.2
20260503150837 17 53 0.0 0.0 0.00 0.00 0.00 86 1018.2
20260503150739 17 53 0.0 0.0 0.00 0.00 0.00 86 1018.2
20260503150642 17 53 0.0 0.0 0.00 0.00 0.00 86 1018.3
20260503150540 17 53 0.0 0.0 0.00 0.00 0.00 86 1018.3
20260503150439 17 53 0.0 0.0 0.00 0.00 0.00 86 1018.3
20260503150340 17 53 0.0 0.0 0.00 0.00 0.00 86 1018.3
20260503150237 17 53 0.0 0.0 0.00 0.00 0.00 86 1018.3
20260503150137 17 53 0.0 0.0 0.00 0.00 0.00 86 1018.4
20260503140259 18 344 0.0 1.6 0.00 0.00 0.00 85 1018.7
20260503140158 18 346 0.0 0.0 0.00 0.00 0.00 85 1018.8
20260503131410 18 62 1.6 8.0 0.00 0.00 0.00 85 1019.2
20260503131310 18 47 0.0 8.0 0.00 0.00 0.00 85 1019.1
20260503131209 18 58 1.6 8.0 0.00 0.00 0.00 85 1019.2
20260503131009 18 62 1.6 8.0 0.00 0.00 0.00 85 1019.1
20260503130910 18 39 3.2 8.0 0.00 0.00 0.00 85 1019.2
20260503130811 18 39 4.8 8.0 0.00 0.00 0.00 85 1019.1
20260503130710 18 19 4.8 8.0 0.00 0.00 0.00 85 1019.2
20260503130512 18 21 3.2 8.0 0.00 0.00 0.00 85 1019.2
20260503130448 18 32 3.2 8.0 0.00 0.00 0.00 85 1019.2
20260503130428 18 36 3.2 8.0 0.00 0.00 0.00 85 1019.2
20260503130407 18 40 3.2 8.0 0.00 0.00 0.00 85 1019.2
20260503130333 18 25 1.6 8.0 0.00 0.00 0.00 85 1019.2
20260503120142 19 5 3.2 11.3 0.00 0.00 0.00 85 1019.9
20260503110737 20 51 4.8 12.9 0.00 0.00 0.00 85 1019.6
20260503110640 20 27 6.4 12.9 0.00 0.00 0.00 85 1019.7
20260503110540 19 72 3.2 12.9 0.00 0.00 0.00 85 1019.7
20260503110442 19 26 3.2 12.9 0.00 0.00 0.00 85 1019.7
20260503110410 20 53 6.4 12.9 0.00 0.00 0.00 85 1019.7
20260503110347 20 48 6.4 12.9 0.00 0.00 0.00 85 1019.6
20260503110327 20 26 4.8 12.9 0.00 0.00 0.00 85 1019.7
20260503110305 20 50 3.2 12.9 0.00 0.00 0.00 85 1019.7
20260503100221 20 84 6.4 16.1 0.00 0.00 0.00 85 1019.2
20260503100119 20 22 6.4 16.1 0.00 0.00 0.00 84 1019.3
20260503090459 20 29 3.2 16.1 0.00 0.00 0.00 83 1019.5
20260503090157 20 51 4.8 16.1 0.00 0.00 0.00 83 1019.6
20260503081537 21 56 4.8 14.5 0.00 0.00 0.00 79 1019.1
20260503081437 21 46 6.4 14.5 0.00 0.00 0.00 79 1019.2
20260503081339 21 91 8.0 14.5 0.00 0.00 0.00 79 1019.1
20260503081139 21 81 3.2 12.9 0.00 0.00 0.00 79 1019.2
20260503081037 21 11 1.6 12.9 0.00 0.00 0.00 79 1019.3
20260503080937 21 67 3.2 12.9 0.00 0.00 0.00 79 1019.2
20260503080838 21 112 4.8 12.9 0.00 0.00 0.00 78 1019.2
20260503080640 21 63 3.2 12.9 0.00 0.00 0.00 78 1019.2
20260503080544 21 56 4.8 12.9 0.00 0.00 0.00 78 1019.2
20260503080437 21 38 3.2 12.9 0.00 0.00 0.00 78 1019.1
20260503080339 21 92 4.8 11.3 0.00 0.00 0.00 78 1019.2
20260503080140 21 29 4.8 17.7 0.00 0.00 0.00 78 1019.2
20260503072901 21 81 11.3 19.3 0.00 0.00 0.00 75 1019.1
20260503072839 21 15 8.0 19.3 0.00 0.00 0.00 75 1019.1
20260503072814 21 49 4.8 12.9 0.00 0.00 0.00 75 1019.1
20260503072747 21 103 6.4 12.9 0.00 0.00 0.00 75 1019.1
20260503072510 21 103 6.4 14.5 0.00 0.00 0.00 75 1019.1
20260503072448 21 65 6.4 16.1 0.00 0.00 0.00 75 1019.1
20260503072428 21 22 6.4 16.1 0.00 0.00 0.00 75 1019.2
20260503072140 21 35 4.8 16.1 0.00 0.00 0.00 75 1019.1
20260503072038 21 34 3.2 16.1 0.00 0.00 0.00 75 1019.1
20260503071937 22 69 4.8 16.1 0.00 0.00 0.00 75 1019.1
20260503071836 22 75 8.0 16.1 0.00 0.00 0.00 75 1019.1
20260503071739 22 65 8.0 16.1 0.00 0.00 0.00 75 1019.1
20260503071640 22 43 8.0 16.1 0.00 0.00 0.00 74 1019.1
20260503071539 22 73 6.4 16.1 0.00 0.00 0.00 74 1019.1
20260503071437 22 17 4.8 16.1 0.00 0.00 0.00 74 1019.1
20260503071339 22 42 4.8 9.7 0.00 0.00 0.00 74 1019.2
20260503071237 22 33 4.8 9.7 0.00 0.00 0.00 74 1019.2
20260503071139 22 67 4.8 9.7 0.00 0.00 0.00 74 1019.1
20260503071039 22 36 4.8 12.9 0.00 0.00 0.00 74 1019.1
20260503070945 22 53 4.8 12.9 0.00 0.00 0.00 74 1019.1
20260503070839 22 74 3.2 12.9 0.00 0.00 0.00 74 1019.1
20260503070738 22 76 6.4 14.5 0.00 0.00 0.00 74 1019.1
20260503070641 22 33 4.8 14.5 0.00 0.00 0.00 74 1019.1
20260503070539 22 52 3.2 16.1 0.00 0.00 0.00 74 1019.2
20260503070515 22 58 4.8 16.1 0.00 0.00 0.00 73 1019.2
20260503070446 22 111 6.4 16.1 0.00 0.00 0.00 74 1019.3
20260503070428 22 62 6.4 16.1 0.00 0.00 0.00 74 1019.3
20260503070137 22 37 3.2 16.1 0.00 0.00 0.00 73 1019.2
20260503060311 24 49 11.3 24.1 0.00 0.00 0.00 68 1019.4
20260503060209 24 49 9.7 24.1 0.00 0.00 0.00 68 1019.5
20260503060117 24 35 4.8 24.1 0.00 0.00 0.00 68 1019.5
20260503055054 24 71 9.7 19.3 0.00 0.00 0.00 67 1019.4
20260503055009 24 63 9.7 19.3 0.00 0.00 0.00 67 1019.4
20260503054942 24 31 8.0 19.3 0.00 0.00 0.00 67 1019.4
20260503054917 24 54 6.4 19.3 0.00 0.00 0.00 67 1019.4
20260503054857 24 39 3.2 19.3 0.00 0.00 0.00 67 1019.3
20260503054543 24 57 8.0 19.3 0.00 0.00 0.00 67 1019.3
20260503054444 24 63 12.9 19.3 0.00 0.00 0.00 66 1019.5
20260503054344 24 39 11.3 19.3 0.00 0.00 0.00 66 1019.4
20260503054238 25 28 9.7 22.5 0.00 0.00 0.00 66 1019.5
20260503054037 24 81 3.2 22.5 0.00 0.00 0.00 67 1019.4
20260503053938 24 43 3.2 22.5 0.00 0.00 0.00 67 1019.3
20260503053839 24 32 6.4 22.5 0.00 0.00 0.00 67 1019.4
20260503053738 24 104 8.0 22.5 0.00 0.00 0.00 66 1019.4
20260503053537 24 119 6.4 22.5 0.00 0.00 0.00 66 1019.5
20260503053437 24 55 12.9 22.5 0.00 0.00 0.00 66 1019.5
20260503053338 24 55 9.7 22.5 0.00 0.00 0.00 66 1019.5
20260503053240 24 48 6.4 22.5 0.00 0.00 0.00 66 1019.5
20260503053037 25 94 11.3 20.9 0.00 0.00 0.00 65 1019.5
20260503052937 25 73 8.0 20.9 0.00 0.00 0.00 65 1019.4
20260503052837 25 116 6.4 20.9 0.00 0.00 0.00 65 1019.3
20260503052739 25 95 9.7 20.9 0.00 0.00 0.00 65 1019.4
20260503052538 25 39 8.0 20.9 0.00 0.00 0.00 65 1019.4
20260503052437 25 63 8.0 22.5 0.00 0.00 0.00 65 1019.6
20260503052338 25 109 9.7 22.5 0.00 0.00 0.00 64 1019.5
20260503052237 25 109 9.7 22.5 0.00 0.00 0.00 64 1019.5
20260503052033 25 26 11.3 22.5 0.00 0.00 0.00 64 1019.5
20260503051927 25 29 8.0 22.5 0.00 0.00 0.00 63 1019.5
20260503051821 25 65 8.0 22.5 0.00 0.00 0.00 63 1019.5
20260503051724 25 98 14.5 22.5 0.00 0.00 0.00 63 1019.5
20260503051619 25 42 14.5 22.5 0.00 0.00 0.00 63 1019.5
20260503051521 25 46 12.9 22.5 0.00 0.00 0.00 63 1019.5
20260503051435 25 28 14.5 22.5 0.00 0.00 0.00 62 1019.5
20260503051314 25 46 8.0 22.5 0.00 0.00 0.00 62 1019.5
20260503051212 26 46 6.4 22.5 0.00 0.00 0.00 62 1019.6
20260503051115 26 80 8.0 20.9 0.00 0.00 0.00 61 1019.5
20260503051011 26 44 11.3 20.9 0.00 0.00 0.00 62 1019.5
20260503050909 26 47 9.7 20.9 0.00 0.00 0.00 62 1019.5
20260503050809 26 0 3.2 20.9 0.00 0.00 0.00 62 1019.6
20260503050710 26 340 3.2 14.5 0.00 0.00 0.00 64 1019.6
20260503050611 26 69 4.8 14.5 0.00 0.00 0.00 63 1019.5
20260503050510 26 41 6.4 14.5 0.00 0.00 0.00 63 1019.6
20260503050411 25 77 8.0 14.5 0.00 0.00 0.00 63 1019.7
20260503050311 25 44 6.4 14.5 0.00 0.00 0.00 63 1019.8
20260503050210 25 86 4.8 16.1 0.00 0.00 0.00 63 1019.7
20260503050110 25 50 6.4 16.1 0.00 0.00 0.00 62 1019.7
20260503050017 25 92 6.4 16.1 0.00 0.00 0.00 62 1019.8
20260503045910 25 65 6.4 16.1 0.00 0.00 0.00 62 1019.8
20260503045808 25 100 6.4 16.1 0.00 0.00 0.00 61 1019.8
20260503045710 26 82 8.0 16.1 0.00 0.00 0.00 60 1019.8
20260503045609 26 88 6.4 16.1 0.00 0.00 0.00 61 1019.8
20260503045509 26 96 6.4 16.1 0.00 0.00 0.00 61 1019.7
20260503045410 26 65 4.8 16.1 0.00 0.00 0.00 61 1019.8
20260503045310 25 61 3.2 16.1 0.00 0.00 0.00 60 1019.7
20260503045209 25 76 6.4 11.3 0.00 0.00 0.00 61 1019.8
20260503045103 25 71 6.4 11.3 0.00 0.00 0.00 61 1019.8
20260503044957 25 55 4.8 14.5 0.00 0.00 0.00 61 1019.8
20260503044859 25 86 4.8 14.5 0.00 0.00 0.00 61 1019.8
20260503044757 25 9 3.2 14.5 0.00 0.00 0.00 61 1019.9
20260503044652 25 41 3.2 14.5 0.00 0.00 0.00 61 1019.8
20260503044552 25 75 3.2 14.5 0.00 0.00 0.00 61 1019.9
20260503044452 25 93 3.2 14.5 0.00 0.00 0.00 61 1019.9
20260503044411 25 106 3.2 14.5 0.00 0.00 0.00 61 1019.8
20260503044240 25 92 4.8 14.5 0.00 0.00 0.00 61 1019.8
20260503044140 25 68 6.4 14.5 0.00 0.00 0.00 61 1019.9
20260503044041 25 55 6.4 16.1 0.00 0.00 0.00 61 1019.9
20260503043941 25 98 8.0 17.7 0.00 0.00 0.00 61 1019.9
20260503043837 25 107 6.4 17.7 0.00 0.00 0.00 61 1019.8
20260503043740 25 22 6.4 17.7 0.00 0.00 0.00 60 1019.9
20260503043639 25 85 8.0 17.7 0.00 0.00 0.00 60 1019.9
20260503043541 25 61 6.4 17.7 0.00 0.00 0.00 59 1019.9
20260503043436 25 75 4.8 17.7 0.00 0.00 0.00 59 1019.8
20260503043340 25 109 6.4 17.7 0.00 0.00 0.00 59 1019.8
20260503043239 26 57 8.0 17.7 0.00 0.00 0.00 59 1019.9
20260503043139 26 92 8.0 17.7 0.00 0.00 0.00 59 1019.8
20260503043040 26 61 9.7 17.7 0.00 0.00 0.00 58 1019.9
20260503042939 26 10 6.4 14.5 0.00 0.00 0.00 58 1019.9
20260503042839 26 332 6.4 14.5 0.00 0.00 0.00 59 1019.8
20260503042736 26 5 4.8 14.5 0.00 0.00 0.00 59 1019.9
20260503042637 26 66 3.2 14.5 0.00 0.00 0.00 59 1019.9
20260503042539 26 47 6.4 17.7 0.00 0.00 0.00 58 1019.8
20260503042438 26 76 6.4 17.7 0.00 0.00 0.00 59 1019.9
20260503042338 26 128 6.4 17.7 0.00 0.00 0.00 59 1019.9
20260503042237 26 64 4.8 17.7 0.00 0.00 0.00 59 1019.8
20260503042137 25 94 3.2 17.7 0.00 0.00 0.00 59 1019.9
20260503042039 25 44 4.8 17.7 0.00 0.00 0.00 58 1019.9
20260503041937 26 101 6.4 17.7 0.00 0.00 0.00 58 1019.9
20260503041839 26 140 8.0 17.7 0.00 0.00 0.00 58 1019.9
20260503041738 26 63 9.7 17.7 0.00 0.00 0.00 58 1020.0
20260503041638 26 51 6.4 17.7 0.00 0.00 0.00 58 1020.0
20260503041537 26 32 6.4 17.7 0.00 0.00 0.00 58 1020.0
20260503041438 26 17 9.7 17.7 0.00 0.00 0.00 58 1020.0
20260503041355 26 45 9.7 17.7 0.00 0.00 0.00 58 1020.0
20260503041305 26 44 4.8 17.7 0.00 0.00 0.00 59 1020.0
20260503041212 26 92 1.6 12.9 0.00 0.00 0.00 57 1020.0
20260503040935 26 117 4.8 12.9 0.00 0.00 0.00 56 1020.0
20260503040910 26 37 4.8 12.9 0.00 0.00 0.00 57 1020.0
20260503040851 26 350 4.8 12.9 0.00 0.00 0.00 58 1020.0
20260503040825 26 104 6.4 12.9 0.00 0.00 0.00 58 1020.0
20260503040510 26 105 4.8 12.9 0.00 0.00 0.00 58 1020.0
20260503040411 26 114 4.8 9.7 0.00 0.00 0.00 58 1020.0
20260503040310 25 79 6.4 9.7 0.00 0.00 0.00 58 1020.1
20260503040213 25 26 6.4 14.5 0.00 0.00 0.00 58 1020.1
20260503040012 25 39 3.2 16.1 0.00 0.00 0.00 56 1020.0
20260503035910 25 47 3.2 16.1 0.00 0.00 0.00 56 1020.0
20260503035809 25 53 3.2 16.1 0.00 0.00 0.00 56 1020.1
20260503035709 25 14 4.8 16.1 0.00 0.00 0.00 56 1020.0
20260503035509 25 36 8.0 16.1 0.00 0.00 0.00 56 1020.1
20260503035411 25 59 9.7 16.1 0.00 0.00 0.00 56 1020.1
20260503035305 25 57 9.7 16.1 0.00 0.00 0.00 56 1020.1
20260503035205 25 38 9.7 16.1 0.00 0.00 0.00 55 1020.1
20260503035057 25 65 8.0 16.1 0.00 0.00 0.00 55 1020.2
20260503034959 25 26 6.4 14.5 0.00 0.00 0.00 55 1020.0
20260503034858 25 19 4.8 14.5 0.00 0.00 0.00 55 1020.1
20260503034800 25 350 8.0 14.5 0.00 0.00 0.00 54 1020.1
20260503034658 25 5 8.0 14.5 0.00 0.00 0.00 54 1020.2
20260503034550 25 350 4.8 14.5 0.00 0.00 0.00 55 1020.2
20260503034451 25 317 3.2 11.3 0.00 0.00 0.00 57 1020.1
20260503034353 25 330 3.2 11.3 0.00 0.00 0.00 57 1020.2
20260503034317 25 58 4.8 11.3 0.00 0.00 0.00 56 1020.2
20260503034157 25 68 3.2 11.3 0.00 0.00 0.00 57 1020.2
20260503034048 25 121 3.2 11.3 0.00 0.00 0.00 56 1020.2
20260503033941 25 86 3.2 12.9 0.00 0.00 0.00 56 1020.1
20260503033921 25 18 6.4 14.5 0.00 0.00 0.00 57 1020.2
20260503033855 25 98 6.4 14.5 0.00 0.00 0.00 57 1020.3
20260503033830 25 130 4.8 16.1 0.00 0.00 0.00 57 1020.3
20260503033538 25 58 3.2 16.1 0.00 0.00 0.00 57 1020.4
20260503033437 25 86 3.2 16.1 0.00 0.00 0.00 57 1020.4
20260503033339 25 71 4.8 16.1 0.00 0.00 0.00 57 1020.4
20260503033236 25 45 6.4 16.1 0.00 0.00 0.00 56 1020.3
20260503033142 25 57 6.4 19.3 0.00 0.00 0.00 56 1020.3
20260503033037 25 9 8.0 19.3 0.00 0.00 0.00 55 1020.4
20260503032938 25 60 6.4 19.3 0.00 0.00 0.00 55 1020.3
20260503032838 25 57 9.7 19.3 0.00 0.00 0.00 55 1020.2
20260503032740 25 41 11.3 19.3 0.00 0.00 0.00 55 1020.4
20260503032639 25 32 9.7 19.3 0.00 0.00 0.00 55 1020.5
20260503032537 25 90 9.7 19.3 0.00 0.00 0.00 55 1020.5
20260503032439 25 62 9.7 19.3 0.00 0.00 0.00 55 1020.5
20260503032337 25 66 9.7 19.3 0.00 0.00 0.00 55 1020.4
20260503032235 25 37 9.7 19.3 0.00 0.00 0.00 55 1020.6
20260503032135 25 26 8.0 17.7 0.00 0.00 0.00 54 1020.5
20260503032035 25 63 8.0 17.7 0.00 0.00 0.00 54 1020.6
20260503031934 25 51 6.4 17.7 0.00 0.00 0.00 55 1020.5
20260503031832 25 51 8.0 14.5 0.00 0.00 0.00 54 1020.5
20260503031729 25 23 6.4 14.5 0.00 0.00 0.00 55 1020.6
20260503031628 25 76 4.8 14.5 0.00 0.00 0.00 56 1020.5
20260503031529 25 89 4.8 14.5 0.00 0.00 0.00 56 1020.5
20260503031428 25 54 6.4 14.5 0.00 0.00 0.00 55 1020.6
20260503031327 25 345 6.4 14.5 0.00 0.00 0.00 55 1020.5
20260503031228 25 5 6.4 14.5 0.00 0.00 0.00 56 1020.6
20260503031126 25 16 4.8 14.5 0.00 0.00 0.00 55 1020.6
20260503031027 25 346 6.4 14.5 0.00 0.00 0.00 55 1020.6
20260503030921 25 5 6.4 14.5 0.00 0.00 0.00 55 1020.5
20260503030820 25 333 6.4 19.3 0.00 0.00 0.00 54 1020.7
20260503030716 25 28 4.8 19.3 0.00 0.00 0.00 55 1020.7
20260503030513 25 117 6.4 19.3 0.00 0.00 0.00 54 1020.8
20260503030412 25 74 8.0 19.3 0.00 0.00 0.00 54 1020.7
20260503030310 25 65 6.4 19.3 0.00 0.00 0.00 54 1020.7
20260503030210 25 86 6.4 19.3 0.00 0.00 0.00 54 1020.7
20260503030011 25 38 8.0 19.3 0.00 0.00 0.00 54 1020.7
20260503025909 25 61 9.7 19.3 0.00 0.00 0.00 54 1020.6
20260503025810 25 90 9.7 19.3 0.00 0.00 0.00 54 1020.7
20260503025709 25 88 9.7 19.3 0.00 0.00 0.00 54 1020.8
20260503025511 25 10 9.7 19.3 0.00 0.00 0.00 53 1020.8
20260503025412 25 11 9.7 19.3 0.00 0.00 0.00 54 1020.9
20260503025310 25 34 9.7 17.7 0.00 0.00 0.00 54 1020.9
20260503025209 25 40 9.7 17.7 0.00 0.00 0.00 54 1020.9
20260503025011 25 9 8.0 17.7 0.00 0.00 0.00 54 1021.2
20260503024909 25 21 6.4 17.7 0.00 0.00 0.00 54 1021.1
20260503024809 25 28 4.8 17.7 0.00 0.00 0.00 54 1021.1
20260503024710 25 0 8.0 17.7 0.00 0.00 0.00 55 1021.2
20260503024512 25 76 8.0 19.3 0.00 0.00 0.00 54 1021.2
20260503024406 25 126 6.4 19.3 0.00 0.00 0.00 55 1021.2
20260503024258 25 46 4.8 19.3 0.00 0.00 0.00 55 1021.2
20260503024156 25 37 6.4 20.9 0.00 0.00 0.00 54 1021.1
20260503024058 25 33 6.4 20.9 0.00 0.00 0.00 55 1021.1
20260503023952 25 32 8.0 20.9 0.00 0.00 0.00 55 1021.2
20260503023850 25 67 8.0 20.9 0.00 0.00 0.00 54 1021.2
20260503023752 25 39 8.0 20.9 0.00 0.00 0.00 54 1021.2
20260503023649 25 100 8.0 20.9 0.00 0.00 0.00 54 1021.2
20260503023445 25 30 12.9 20.9 0.00 0.00 0.00 53 1021.3
20260503023338 25 28 12.9 20.9 0.00 0.00 0.00 53 1021.2
20260503023238 25 48 9.7 20.9 0.00 0.00 0.00 54 1021.2
20260503023140 25 18 8.0 17.7 0.00 0.00 0.00 54 1021.1
20260503023037 25 27 8.0 17.7 0.00 0.00 0.00 53 1021.2
20260503022939 25 61 9.7 17.7 0.00 0.00 0.00 55 1021.2
20260503022839 25 23 8.0 17.7 0.00 0.00 0.00 54 1021.2
20260503022738 25 63 6.4 17.7 0.00 0.00 0.00 55 1021.3
20260503022640 25 43 8.0 17.7 0.00 0.00 0.00 55 1021.3
20260503022538 25 47 6.4 17.7 0.00 0.00 0.00 55 1021.2
20260503022439 25 44 4.8 17.7 0.00 0.00 0.00 55 1021.4
20260503022337 25 42 4.8 19.3 0.00 0.00 0.00 55 1021.3
20260503022238 25 65 4.8 19.3 0.00 0.00 0.00 55 1021.3
20260503022137 25 103 4.8 19.3 0.00 0.00 0.00 55 1021.2
20260503022037 25 86 4.8 19.3 0.00 0.00 0.00 55 1021.4
20260503021938 25 92 6.4 19.3 0.00 0.00 0.00 54 1021.5
20260503021839 25 59 6.4 19.3 0.00 0.00 0.00 55 1021.5
20260503021737 25 56 9.7 19.3 0.00 0.00 0.00 54 1021.6
20260503021641 25 30 11.3 19.3 0.00 0.00 0.00 54 1021.6
20260503021533 25 36 9.7 19.3 0.00 0.00 0.00 55 1021.6
20260503021430 25 17 4.8 19.3 0.00 0.00 0.00 55 1021.7
20260503021332 25 45 4.8 19.3 0.00 0.00 0.00 56 1021.6
20260503021227 25 9 6.4 19.3 0.00 0.00 0.00 55 1021.8
20260503021124 25 316 9.7 19.3 0.00 0.00 0.00 55 1021.7
20260503021026 25 49 8.0 19.3 0.00 0.00 0.00 56 1021.8
20260503020926 25 46 3.2 19.3 0.00 0.00 0.00 56 1021.7
20260503020906 25 31 4.8 19.3 0.00 0.00 0.00 55 1021.8
20260503020841 25 47 8.0 19.3 0.00 0.00 0.00 54 1021.8
20260503020820 25 82 11.3 19.3 0.00 0.00 0.00 55 1021.7
20260503020514 25 54 9.7 19.3 0.00 0.00 0.00 55 1021.8
20260503020412 25 12 8.0 19.3 0.00 0.00 0.00 54 1021.9
20260503020315 25 355 8.0 17.7 0.00 0.00 0.00 55 1022.0
20260503020212 25 13 9.7 17.7 0.00 0.00 0.00 56 1022.0
20260503020112 25 69 8.0 17.7 0.00 0.00 0.00 55 1022.1
20260503020011 25 22 9.7 17.7 0.00 0.00 0.00 55 1022.0
20260503015912 25 5 6.4 17.7 0.00 0.00 0.00 55 1022.0
20260503015809 25 329 4.8 16.1 0.00 0.00 0.00 56 1022.0
20260503015711 24 343 6.4 16.1 0.00 0.00 0.00 56 1022.0
20260503015611 24 329 9.7 16.1 0.00 0.00 0.00 56 1022.0
20260503015513 24 26 11.3 17.7 0.00 0.00 0.00 55 1022.0
20260503015412 24 58 12.9 17.7 0.00 0.00 0.00 56 1022.0
20260503015308 24 5 9.7 17.7 0.00 0.00 0.00 55 1022.1
20260503015213 24 316 8.0 17.7 0.00 0.00 0.00 55 1022.1
20260503015109 24 0 9.7 17.7 0.00 0.00 0.00 56 1022.1
20260503015013 24 55 11.3 17.7 0.00 0.00 0.00 56 1022.1
20260503014910 24 51 11.3 17.7 0.00 0.00 0.00 55 1022.2
20260503014810 24 53 9.7 17.7 0.00 0.00 0.00 55 1022.2
20260503014709 24 46 11.3 17.7 0.00 0.00 0.00 56 1022.2
20260503014610 24 13 11.3 17.7 0.00 0.00 0.00 56 1022.2
20260503014513 24 30 9.7 17.7 0.00 0.00 0.00 56 1022.3
20260503014411 24 34 8.0 17.7 0.00 0.00 0.00 56 1022.3
20260503014306 24 347 8.0 20.9 0.00 0.00 0.00 56 1022.2
20260503014205 24 14 6.4 20.9 0.00 0.00 0.00 56 1022.3
20260503014106 24 65 8.0 20.9 0.00 0.00 0.00 57 1022.2
20260503013959 24 59 8.0 20.9 0.00 0.00 0.00 56 1022.2
20260503013854 24 45 8.0 20.9 0.00 0.00 0.00 56 1022.4
20260503013750 24 54 8.0 20.9 0.00 0.00 0.00 55 1022.4
20260503013648 24 28 9.7 24.1 0.00 0.00 0.00 55 1022.4
20260503013448 24 0 11.3 24.1 0.00 0.00 0.00 56 1022.3
20260503013349 24 22 12.9 24.1 0.00 0.00 0.00 56 1022.4
20260503013247 24 342 11.3 24.1 0.00 0.00 0.00 56 1022.4
20260503013140 24 17 9.7 24.1 0.00 0.00 0.00 56 1022.3
20260503013039 24 22 8.0 24.1 0.00 0.00 0.00 56 1022.3
20260503012940 24 355 11.3 24.1 0.00 0.00 0.00 56 1022.3
20260503012842 24 283 12.9 24.1 0.00 0.00 0.00 56 1022.4
20260503012737 24 319 9.7 17.7 0.00 0.00 0.00 56 1022.4
20260503012638 24 331 9.7 17.7 0.00 0.00 0.00 56 1022.5
20260503012539 24 19 8.0 17.7 0.00 0.00 0.00 56 1022.5
20260503012437 24 331 9.7 17.7 0.00 0.00 0.00 56 1022.7
20260503012338 24 350 12.9 17.7 0.00 0.00 0.00 56 1022.7
20260503012239 24 49 12.9 17.7 0.00 0.00 0.00 56 1022.7
20260503012140 24 46 9.7 17.7 0.00 0.00 0.00 57 1022.7
20260503012042 24 71 6.4 17.7 0.00 0.00 0.00 57 1022.7
20260503011938 24 55 8.0 17.7 0.00 0.03 0.00 57 1022.7
20260503011839 24 304 9.7 17.7 0.00 0.03 0.00 58 1022.7
20260503011737 24 0 8.0 17.7 0.00 0.03 0.00 58 1022.8
20260503011636 24 38 8.0 17.7 0.00 0.03 0.00 58 1022.7
20260503011538 24 0 9.7 20.9 0.00 0.03 0.00 58 1022.7
20260503011441 24 303 6.4 20.9 0.00 0.03 0.00 59 1022.7
20260503011339 24 34 8.0 20.9 0.00 0.03 0.00 59 1022.7
20260503011307 23 331 8.0 20.9 0.00 0.03 0.00 58 1022.8
20260503011247 24 350 8.0 20.9 0.00 0.03 0.00 58 1022.7
20260503011221 24 38 11.3 20.9 0.00 0.03 0.00 58 1022.8
20260503011154 24 0 8.0 20.9 0.00 0.03 0.00 58 1022.7
20260503010851 23 347 6.4 20.9 0.00 0.03 0.00 58 1022.7
20260503010825 23 28 9.7 20.9 0.00 0.03 0.00 59 1022.7
20260503010805 23 316 11.3 20.9 0.00 0.03 0.00 59 1022.7
20260503010526 23 46 11.3 19.3 0.00 0.03 0.00 59 1022.7
20260503010426 23 36 11.3 19.3 0.00 0.03 0.00 59 1022.7
20260503010322 23 30 9.7 19.3 0.00 0.03 0.00 60 1022.8
20260503010219 23 26 11.3 19.3 0.00 0.03 0.00 60 1022.8
20260503010120 23 23 8.0 19.3 0.00 0.03 0.00 60 1022.8
20260503010018 23 37 9.7 17.7 0.00 0.03 0.00 61 1022.9
20260503005924 23 5 9.7 17.7 0.00 0.03 0.00 60 1022.8
20260503005902 23 56 9.7 17.7 0.00 0.03 0.00 60 1023.1
20260503005838 23 16 8.0 17.7 0.00 0.03 0.00 60 1022.9
20260503005816 23 15 9.7 16.1 0.00 0.03 0.00 60 1023.1
20260503005520 23 23 8.0 17.7 0.00 0.03 0.00 60 1022.9
20260503005446 23 47 9.7 17.7 0.00 0.03 0.00 60 1022.9
20260503005429 23 0 9.7 17.7 0.00 0.03 0.00 61 1022.9
20260503005407 23 43 6.4 17.7 0.00 0.03 0.00 61 1023.0
20260503005133 23 67 6.4 17.7 0.00 0.03 0.00 61 1022.9
20260503005106 23 82 6.4 17.7 0.00 0.03 0.00 61 1023.0
20260503005037 23 65 6.4 17.7 0.00 0.03 0.00 62 1022.9
20260503005017 23 35 8.0 17.7 0.00 0.03 0.00 61 1023.0
20260503004952 23 355 6.4 17.7 0.00 0.03 0.00 62 1023.2
20260503004931 23 66 4.8 17.7 0.00 0.03 0.00 62 1023.1
20260503004656 23 46 8.0 16.1 0.00 0.03 0.00 62 1023.1
20260503004413 23 44 8.0 16.1 0.00 0.03 0.00 62 1023.1
20260503004351 23 17 9.7 16.1 0.00 0.03 0.00 62 1023.1
20260503004330 23 36 9.7 16.1 0.00 0.03 0.00 63 1023.0
20260503004307 23 38 9.7 16.1 0.00 0.03 0.00 62 1022.9
20260503004002 23 28 9.7 16.1 0.00 0.03 0.00 62 1023.1
20260503003859 23 53 8.0 16.1 0.00 0.03 0.00 63 1023.1
20260503003759 23 44 8.0 16.1 0.00 0.03 0.00 63 1023.1
20260503003658 23 42 6.4 16.1 0.00 0.03 0.00 64 1023.1
20260503003559 23 42 6.4 16.1 0.00 0.03 0.00 64 1023.2
20260503003458 23 5 6.4 16.1 0.00 0.03 0.00 63 1023.1
20260503003400 23 41 6.4 17.7 0.00 0.03 0.00 63 1023.1
20260503003257 23 355 8.0 17.7 0.00 0.03 0.00 64 1023.1
20260503003232 23 355 6.4 22.5 0.00 0.03 0.00 64 1023.2
20260503003210 23 325 4.8 22.5 0.00 0.03 0.00 65 1023.1
20260503003143 23 5 6.4 22.5 0.00 0.03 0.00 64 1023.1
20260503002858 23 5 8.0 22.5 0.00 0.03 0.00 64 1023.1
20260503002834 22 0 9.7 22.5 0.00 0.03 0.00 64 1023.1
20260503002812 22 41 8.0 22.5 0.00 0.03 0.00 64 1023.1
20260503002752 22 43 8.0 22.5 0.00 0.03 0.00 64 1023.2
20260503002438 22 30 11.3 22.5 0.00 0.03 0.00 64 1023.1
20260503002354 22 41 16.1 22.5 0.00 0.03 0.00 64 1023.1
20260503002333 22 352 11.3 22.5 0.00 0.03 0.00 64 1023.3
20260503002312 22 0 9.7 20.9 0.00 0.03 0.00 64 1023.2
20260503002252 22 308 9.7 20.9 0.00 0.03 0.00 64 1023.2
20260503001940 23 35 9.7 20.9 0.00 0.03 0.00 65 1023.1
20260503001839 23 5 9.7 19.3 0.00 0.03 0.00 65 1023.2
20260503001740 23 9 8.0 19.3 0.00 0.03 0.00 66 1023.1
20260503001637 23 0 9.7 19.3 0.00 0.03 0.00 65 1023.1
20260503001553 23 36 4.8 19.3 0.00 0.03 0.00 66 1023.1
20260503001442 23 86 3.2 14.5 0.00 0.03 0.00 67 1023.0
20260503001339 22 86 3.2 14.5 0.00 0.03 0.00 67 1023.1
20260503001237 22 40 3.2 14.5 0.00 0.03 0.00 67 1023.0
20260503001140 22 344 6.4 14.5 0.00 0.03 0.00 67 1023.0
20260503000937 22 80 6.4 17.7 0.00 0.03 0.00 67 1023.1
20260503000839 22 26 6.4 17.7 0.00 0.03 0.00 67 1023.1
20260503000739 22 11 6.4 17.7 0.00 0.03 0.00 67 1023.1
20260503000639 22 349 8.0 17.7 0.00 0.03 0.00 67 1023.1
20260503000438 22 335 8.0 17.7 0.00 0.03 0.00 67 1023.1
20260503000410 22 75 11.3 19.3 0.00 0.03 0.00 67 1023.2
20260503000349 22 23 6.4 17.7 0.00 0.03 0.00 68 1023.2
20260503000329 22 39 8.0 19.3 0.00 0.03 0.00 68 1023.2
20260503000029 22 355 9.7 19.3 0.00 0.03 0.00 67 1023.1
20260502235933 22 0 9.7 19.3 0.00 0.03 0.00 67 1023.2
20260502235846 22 5 12.9 19.3 0.00 0.03 0.00 67 1023.2
20260502235821 22 24 9.7 19.3 0.00 0.03 0.00 68 1023.2
20260502235759 22 74 6.4 19.3 0.00 0.03 0.00 68 1023.2
20260502235516 22 53 8.0 19.3 0.00 0.03 0.00 69 1023.2
20260502235417 22 355 11.3 19.3 0.00 0.03 0.00 69 1023.2
20260502235315 22 74 11.3 19.3 0.00 0.03 0.00 68 1023.2
20260502235210 22 20 8.0 17.7 0.00 0.03 0.00 68 1023.3
20260502235111 22 50 8.0 16.1 0.00 0.03 0.00 68 1023.3
20260502235009 22 53 8.0 16.1 0.00 0.03 0.00 69 1023.2
20260502234911 22 46 4.8 16.1 0.00 0.03 0.00 69 1023.4
20260502234809 22 5 4.8 16.1 0.00 0.03 0.00 70 1023.3
20260502234711 22 347 8.0 16.1 0.00 0.03 0.00 70 1023.3
20260502234609 21 0 9.7 16.1 0.00 0.03 0.00 70 1023.4
20260502234509 21 30 8.0 16.1 0.00 0.03 0.00 70 1023.4
20260502234412 21 313 8.0 16.1 0.00 0.03 0.00 70 1023.4
20260502234309 21 0 9.7 16.1 0.00 0.03 0.00 70 1023.5
20260502234208 21 53 9.7 16.1 0.00 0.03 0.00 70 1023.5
20260502234109 21 33 8.0 16.1 0.00 0.03 0.00 71 1023.5
20260502234010 21 51 4.8 12.9 0.00 0.03 0.00 71 1023.6
20260502233909 21 24 4.8 12.9 0.00 0.03 0.00 71 1023.6
20260502233809 21 28 6.4 11.3 0.00 0.03 0.00 71 1023.6
20260502233711 21 46 3.2 11.3 0.00 0.03 0.00 71 1023.7
20260502233609 21 5 3.2 9.7 0.00 0.03 0.00 72 1023.7
20260502233509 21 48 4.8 9.7 0.00 0.03 0.00 72 1023.7
20260502233410 21 86 6.4 9.7 0.00 0.03 0.00 72 1023.6
20260502233311 21 39 6.4 9.7 0.00 0.03 0.00 72 1023.8
20260502233210 21 29 4.8 9.7 0.00 0.03 0.00 73 1023.7
20260502233109 21 17 3.2 12.9 0.00 0.03 0.00 73 1023.8
20260502233010 21 9 3.2 14.5 0.00 0.03 0.00 73 1023.7
20260502232908 21 5 4.8 14.5 0.00 0.03 0.00 73 1023.7
20260502232810 21 350 4.8 14.5 0.00 0.03 0.00 73 1023.8
20260502232708 21 344 4.8 17.7 0.00 0.03 0.00 73 1023.8
20260502232611 21 344 6.4 17.7 0.00 0.03 0.00 74 1023.9
20260502232509 21 9 4.8 17.7 0.00 0.03 0.00 74 1023.8
20260502232411 21 0 6.4 17.7 0.00 0.03 0.00 74 1023.9
20260502232309 21 5 8.0 17.7 0.00 0.03 0.00 74 1023.9
20260502232210 21 5 9.7 17.7 0.00 0.03 0.00 74 1023.8
20260502232123 21 55 9.7 17.7 0.00 0.03 0.00 74 1023.9
20260502232057 21 34 8.0 17.7 0.00 0.03 0.00 74 1023.7
20260502232034 21 5 4.8 17.7 0.00 0.03 0.00 75 1023.7
20260502232007 21 82 3.2 17.7 0.00 0.03 0.00 75 1023.9
20260502231944 21 11 1.6 8.0 0.00 0.03 0.00 75 1023.7
20260502231925 21 5 0.0 8.0 0.00 0.03 0.00 75 1023.7
20260502231651 21 74 0.0 8.0 0.00 0.03 0.00 76 1023.8
20260502231615 21 121 3.2 9.7 0.00 0.03 0.00 76 1023.9
20260502231333 21 121 4.8 9.7 0.00 0.03 0.00 76 1024.0
20260502231313 21 34 3.2 9.7 0.00 0.03 0.00 76 1024.0
20260502231255 21 281 4.8 9.7 0.00 0.03 0.00 77 1023.8
20260502231009 21 307 4.8 9.7 0.00 0.03 0.00 77 1023.9
20260502230923 20 22 4.8 9.7 0.00 0.03 0.00 77 1024.0
20260502230815 20 11 3.2 9.7 0.00 0.03 0.00 77 1023.9
20260502230714 20 336 4.8 9.7 0.00 0.03 0.00 78 1023.9
20260502230609 20 24 4.8 9.7 0.00 0.03 0.00 78 1023.9
20260502230512 20 303 4.8 9.7 0.00 0.03 0.00 78 1024.0
20260502230408 20 322 4.8 9.7 0.00 0.03 0.00 78 1024.1
20260502230340 20 342 4.8 9.7 0.00 0.03 0.00 79 1024.0
20260502230313 20 22 4.8 9.7 0.00 0.03 0.00 78 1024.1
20260502230256 20 355 3.2 9.7 0.00 0.03 0.00 79 1024.0
20260502230010 20 334 4.8 9.7 0.00 0.03 0.00 79 1024.1
20260502225910 20 334 4.8 9.7 0.00 0.03 0.00 80 1024.1
20260502225810 20 342 3.2 9.7 0.00 0.03 0.00 79 1024.0
20260502225709 20 344 6.4 9.7 0.00 0.03 0.00 80 1023.9
20260502225609 20 323 6.4 9.7 0.00 0.03 0.00 80 1024.0
20260502225509 20 341 4.8 9.7 0.00 0.03 0.00 81 1024.0
20260502225410 20 13 4.8 8.0 0.00 0.03 0.00 81 1024.0
20260502225342 20 333 3.2 6.4 0.00 0.03 0.00 81 1024.0
20260502225313 19 42 3.2 6.4 0.00 0.03 0.00 82 1024.0
20260502225255 19 42 4.8 6.4 0.00 0.03 0.00 82 1024.0
20260502225009 19 347 4.8 9.7 0.00 0.03 0.00 82 1023.9
20260502224910 19 5 4.8 9.7 0.00 0.03 0.00 83 1024.1
20260502224808 19 344 3.2 9.7 0.00 0.03 0.00 83 1024.1
20260502224711 19 321 3.2 9.7 0.00 0.03 0.00 84 1024.0
20260502224609 19 304 3.2 9.7 0.00 0.03 0.00 84 1024.1
20260502224511 19 5 4.8 9.7 0.00 0.03 0.00 85 1024.1
20260502224410 19 5 4.8 9.7 0.00 0.03 0.00 85 1024.0
20260502224311 18 32 6.4 9.7 0.00 0.03 0.00 86 1024.1
20260502224209 18 274 3.2 9.7 0.00 0.03 0.00 86 1024.1
20260502224108 18 329 0.0 9.7 0.00 0.03 0.00 86 1024.1
20260502224010 18 311 0.0 6.4 0.00 0.03 0.00 86 1024.1
20260502223918 18 311 1.6 6.4 0.00 0.03 0.00 87 1024.2
20260502223810 18 311 1.6 6.4 0.00 0.03 0.00 87 1024.1
20260502223711 18 302 1.6 6.4 0.00 0.03 0.00 87 1024.1
20260502223608 18 294 3.2 8.0 0.00 0.03 0.00 88 1024.1
20260502223512 18 290 3.2 8.0 0.00 0.03 0.00 88 1024.1
20260502223421 18 277 4.8 8.0 0.00 0.03 0.00 88 1024.2
20260502223310 18 339 3.2 8.0 0.00 0.03 0.00 88 1024.1
20260502223210 18 329 3.2 8.0 0.00 0.03 0.00 89 1024.0
20260502223110 18 319 3.2 8.0 0.00 0.03 0.00 89 1024.0
20260502223010 18 305 3.2 8.0 0.00 0.03 0.00 89 1024.0
20260502222911 18 295 4.8 8.0 0.00 0.03 0.00 89 1024.0
20260502222809 18 336 4.8 8.0 0.00 0.03 0.00 90 1024.0
20260502222724 18 309 3.2 8.0 0.00 0.03 0.00 90 1023.8
20260502222702 18 321 4.8 8.0 0.00 0.03 0.00 90 1023.9
20260502222636 18 355 3.2 8.0 0.00 0.03 0.00 90 1023.9
20260502222612 18 0 1.6 8.0 0.00 0.03 0.00 90 1023.9
20260502222341 18 309 0.0 3.2 0.00 0.03 0.00 91 1024.0
20260502222313 17 279 1.6 3.2 0.00 0.03 0.00 91 1024.0
20260502222253 17 279 0.0 4.8 0.00 0.03 0.00 91 1024.0
20260502221954 17 279 0.0 4.8 0.00 0.03 0.00 92 1024.0
20260502221848 17 279 0.0 6.4 0.00 0.03 0.00 92 1024.1
20260502221743 17 279 1.6 6.4 0.00 0.03 0.00 93 1024.0
20260502221639 17 279 3.2 6.4 0.00 0.03 0.00 93 1023.9
20260502221545 17 279 1.6 6.4 0.00 0.03 0.00 93 1024.0
20260502221439 17 291 1.6 6.4 0.00 0.03 0.00 93 1023.9
20260502221336 17 313 1.6 6.4 0.00 0.03 0.00 93 1023.8
20260502221241 17 313 3.2 8.0 0.00 0.03 0.00 93 1023.9
20260502221137 17 311 3.2 8.0 0.00 0.03 0.00 93 1024.0
20260502220938 16 31 1.6 8.0 0.00 0.03 0.00 94 1023.8
20260502220901 16 343 1.6 8.0 0.00 0.03 0.00 94 1023.8
20260502220738 16 344 1.6 8.0 0.00 0.03 0.00 94 1023.8
20260502220640 16 333 1.6 8.0 0.00 0.03 0.00 94 1023.7
20260502220441 16 351 3.2 8.0 0.00 0.03 0.00 93 1023.7
20260502220402 16 13 1.6 8.0 0.00 0.03 0.00 93 1023.8
20260502220342 16 5 3.2 6.4 0.00 0.03 0.00 93 1023.7
20260502220312 16 5 3.2 6.4 0.00 0.03 0.00 93 1023.8
20260502220252 16 30 3.2 6.4 0.00 0.03 0.00 93 1023.7
20260502215942 16 11 3.2 6.4 0.00 0.03 0.00 93 1023.7
20260502215840 16 28 1.6 4.8 0.00 0.03 0.00 93 1023.6
20260502215740 16 15 1.6 4.8 0.00 0.03 0.00 93 1023.6
20260502215638 15 296 0.0 1.6 0.00 0.03 0.00 93 1023.6
20260502215439 15 296 0.0 1.6 0.00 0.03 0.00 93 1023.5
20260502215340 15 296 0.0 1.6 0.00 0.03 0.00 93 1023.5
20260502215236 15 296 0.0 1.6 0.00 0.03 0.00 93 1023.6
20260502215137 15 296 0.0 1.6 0.00 0.03 0.00 93 1023.6
20260502214937 15 296 0.0 1.6 0.00 0.03 0.00 93 1023.7